Time,TemperatureF,DewpointF,PressureIn,WindDirection,WindDirectionDegrees,WindSpeedMPH,WindSpeedGustMPH,Humidity,HourlyPrecipIn,Conditions,Clouds,dailyrainin,SoftwareType,DateUTC
2013-05-01 00:14:00,47.2,32.0,30.31,SE,146,0.0,0.0,56,0.00,,,0.00,weatherlink.com 1.10,2013-05-01 04:14:00,
2013-05-01 00:29:00,46.8,31.0,30.32,SE,146,0.0,0.0,55,0.00,,,0.00,weatherlink.com 1.10,2013-05-01 04:29:00,
2013-05-01 00:44:00,46.5,32.0,30.32,SE,146,0.0,0.0,58,0.00,,,0.00,weatherlink.com 1.10,2013-05-01 04:44:00,
2013-05-01 00:59:00,46.3,31.0,30.32,SE,146,0.0,0.0,56,0.00,,,0.00,weatherlink.com 1.10,2013-05-01 04:59:00,
2013-05-01 01:14:00,46.1,31.0,30.32,SE,146,0.0,0.0,57,0.00,,,0.00,weatherlink.com 1.10,2013-05-01 05:14:00,
2013-05-01 01:29:00,45.9,33.0,30.33,SE,146,0.0,0.0,60,0.00,,,0.00,weatherlink.com 1.10,2013-05-01 05:29:00,
2013-05-01 01:44:00,45.4,34.0,30.33,SE,146,0.0,0.0,64,0.00,,,0.00,weatherlink.com 1.10,2013-05-01 05:44:00,
2013-05-01 02:00:00,45.3,32.0,30.32,SE,146,0.0,0.0,60,0.00,,,0.00,weatherlink.com 1.10,2013-05-01 06:00:00,
2013-05-01 02:15:00,44.8,32.0,30.33,SE,146,0.0,0.0,62,0.00,,,0.00,weatherlink.com 1.10,2013-05-01 06:15:00,
2013-05-01 02:30:00,44.5,34.0,30.33,SE,146,0.0,1.0,67,0.00,,,0.00,weatherlink.com 1.10,2013-05-01 06:30:00,
2013-05-01 02:45:00,43.6,34.0,30.33,SE,146,0.0,0.0,70,0.00,,,0.00,weatherlink.com 1.10,2013-05-01 06:45:00,
2013-05-01 03:00:00,43.6,34.0,30.33,SE,146,0.0,0.0,69,0.00,,,0.00,weatherlink.com 1.10,2013-05-01 07:00:00,
2013-05-01 03:15:00,44.0,32.0,30.33,SE,146,0.0,0.0,62,0.00,,,0.00,weatherlink.com 1.10,2013-05-01 07:15:00,
2013-05-01 03:30:00,44.6,33.0,30.33,SE,146,0.0,0.0,63,0.00,,,0.00,weatherlink.com 1.10,2013-05-01 07:30:00,
2013-05-01 03:45:00,44.1,31.0,30.34,SE,146,0.0,0.0,61,0.00,,,0.00,weatherlink.com 1.10,2013-05-01 07:45:00,
2013-05-01 04:00:00,43.6,32.0,30.34,SE,146,0.0,0.0,64,0.00,,,0.00,weatherlink.com 1.10,2013-05-01 08:00:00,
2013-05-01 04:15:00,43.2,33.0,30.35,SE,146,0.0,0.0,67,0.00,,,0.00,weatherlink.com 1.10,2013-05-01 08:15:00,
2013-05-01 04:30:00,43.4,32.0,30.35,SE,146,0.0,0.0,65,0.00,,,0.00,weatherlink.com 1.10,2013-05-01 08:30:00,
2013-05-01 04:45:00,43.1,32.0,30.35,SE,146,0.0,0.0,66,0.00,,,0.00,weatherlink.com 1.10,2013-05-01 08:45:00,
2013-05-01 05:00:00,42.9,33.0,30.35,SE,146,0.0,0.0,68,0.00,,,0.00,weatherlink.com 1.10,2013-05-01 09:00:00,
2013-05-01 05:15:00,43.2,33.0,30.35,SE,146,0.0,0.0,67,0.00,,,0.00,weatherlink.com 1.10,2013-05-01 09:15:00,
2013-05-01 05:30:00,43.3,33.0,30.36,SE,146,0.0,0.0,67,0.00,,,0.00,weatherlink.com 1.10,2013-05-01 09:30:00,
2013-05-01 05:45:00,43.2,32.0,30.36,SE,146,0.0,0.0,65,0.00,,,0.00,weatherlink.com 1.10,2013-05-01 09:45:00,
2013-05-01 06:00:00,43.2,32.0,30.37,SE,146,0.0,0.0,66,0.00,,,0.00,weatherlink.com 1.10,2013-05-01 10:00:00,
2013-05-01 06:15:00,42.6,33.0,30.38,SE,146,0.0,0.0,69,0.00,,,0.00,weatherlink.com 1.10,2013-05-01 10:15:00,
2013-05-01 06:30:00,42.4,32.0,30.38,SE,146,0.0,0.0,68,0.00,,,0.00,weatherlink.com 1.10,2013-05-01 10:30:00,
2013-05-01 06:45:00,43.1,34.0,30.39,SE,146,0.0,0.0,69,0.00,,,0.00,weatherlink.com 1.10,2013-05-01 10:45:00,
2013-05-01 07:00:00,43.5,34.0,30.40,SE,146,0.0,0.0,70,0.00,,,0.00,weatherlink.com 1.10,2013-05-01 11:00:00,
2013-05-01 07:15:00,45.6,36.0,30.40,SE,146,0.0,0.0,69,0.00,,,0.00,weatherlink.com 1.10,2013-05-01 11:15:00,
2013-05-01 07:30:00,47.9,35.0,30.41,SE,146,0.0,3.0,61,0.00,,,0.00,weatherlink.com 1.10,2013-05-01 11:30:00,
2013-05-01 07:45:00,49.9,33.0,30.41,SE,129,0.0,3.0,52,0.00,,,0.00,weatherlink.com 1.10,2013-05-01 11:45:00,
2013-05-01 08:00:00,51.3,31.0,30.41,NE,51,0.0,4.0,46,0.00,,,0.00,weatherlink.com 1.10,2013-05-01 12:00:00,
2013-05-01 08:15:00,52.4,30.0,30.42,NE,40,0.0,4.0,43,0.00,,,0.00,weatherlink.com 1.10,2013-05-01 12:15:00,
2013-05-01 08:30:00,53.5,30.0,30.42,NE,41,0.0,5.0,40,0.00,,,0.00,weatherlink.com 1.10,2013-05-01 12:30:00,
2013-05-01 08:45:00,54.1,30.0,30.42,ENE,65,2.0,5.0,40,0.00,,,0.00,weatherlink.com 1.10,2013-05-01 12:45:00,
2013-05-01 09:00:00,55.0,30.0,30.42,ENE,64,0.0,6.0,39,0.00,,,0.00,weatherlink.com 1.10,2013-05-01 13:00:00,
2013-05-01 09:15:00,56.0,32.0,30.42,SE,130,2.0,4.0,40,0.00,,,0.00,weatherlink.com 1.10,2013-05-01 13:15:00,
2013-05-01 09:31:00,56.7,32.0,30.42,NE,44,0.0,6.0,39,0.00,,,0.00,weatherlink.com 1.10,2013-05-01 13:31:00,
2013-05-01 09:46:00,57.9,32.0,30.42,NE,47,0.0,5.0,37,0.00,,,0.00,weatherlink.com 1.10,2013-05-01 13:46:00,
2013-05-01 10:02:00,59.3,31.0,30.42,NNE,33,0.0,5.0,35,0.00,,,0.00,weatherlink.com 1.10,2013-05-01 14:02:00,
2013-05-01 10:10:00,59.7,31.3,30.42,NNE,32,2.0,4.0,34,0.00,,,0.00,Wunderground v.1.15,2013-05-01 14:10:00,
2013-05-01 10:16:00,59.8,31.0,30.42,NE,40,0.0,5.0,34,0.00,,,0.00,weatherlink.com 1.10,2013-05-01 14:16:00,
2013-05-01 10:30:00,60.9,30.0,30.42,NE,35,1.0,1.0,31,0.00,,,0.00,Wunderground v.1.15,2013-05-01 14:30:00,
2013-05-01 10:40:00,61.1,31.8,30.43,NE,45,1.0,1.0,33,0.00,,,0.00,Wunderground v.1.15,2013-05-01 14:40:00,
2013-05-01 10:45:00,61.6,31.0,30.43,NNE,27,0.0,6.0,31,0.00,,,0.00,weatherlink.com 1.10,2013-05-01 14:45:00,
2013-05-01 11:00:00,62.7,32.4,30.42,ESE,121,1.0,1.0,32,0.00,,,0.00,Wunderground v.1.15,2013-05-01 15:00:00,
2013-05-01 11:10:00,63.0,31.9,30.42,SSE,149,1.0,1.0,31,0.00,,,0.00,Wunderground v.1.15,2013-05-01 15:10:00,
2013-05-01 11:17:00,62.9,33.0,30.42,NE,44,1.0,7.0,33,0.00,,,0.00,weatherlink.com 1.10,2013-05-01 15:17:00,
2013-05-01 11:30:00,62.5,32.2,30.42,SE,140,2.0,2.0,32,0.00,,,0.00,Wunderground v.1.15,2013-05-01 15:30:00,
2013-05-01 11:40:00,62.8,31.7,30.42,East,97,2.0,6.0,31,0.00,,,0.00,Wunderground v.1.15,2013-05-01 15:40:00,
2013-05-01 11:46:00,62.9,31.0,30.41,East,100,0.0,7.0,30,0.00,,,0.00,weatherlink.com 1.10,2013-05-01 15:46:00,
2013-05-01 12:00:00,63.5,32.3,30.42,East,80,2.0,2.0,31,0.00,,,0.00,Wunderground v.1.15,2013-05-01 16:00:00,
2013-05-01 12:10:00,64.1,34.4,30.42,East,87,1.0,1.0,33,0.00,,,0.00,Wunderground v.1.15,2013-05-01 16:10:00,
2013-05-01 12:17:00,64.3,34.0,30.41,ESE,113,3.0,8.0,32,0.00,,,0.00,weatherlink.com 1.10,2013-05-01 16:17:00,
2013-05-01 12:30:00,64.5,34.7,30.41,SSE,154,2.0,2.0,33,0.00,,,0.00,Wunderground v.1.15,2013-05-01 16:30:00,
2013-05-01 12:40:00,64.4,35.4,30.42,SSE,162,2.0,2.0,34,0.00,,,0.00,Wunderground v.1.15,2013-05-01 16:40:00,
2013-05-01 12:48:00,64.8,39.0,30.42,ESE,109,3.0,10.0,39,0.00,,,0.00,weatherlink.com 1.10,2013-05-01 16:48:00,
2013-05-01 13:00:00,64.1,42.3,30.42,SSE,157,3.0,3.0,45,0.00,,,0.00,Wunderground v.1.15,2013-05-01 17:00:00,
2013-05-01 13:10:00,64.5,42.1,30.42,East,98,2.0,3.0,44,0.00,,,0.00,Wunderground v.1.15,2013-05-01 17:10:00,
2013-05-01 13:17:00,64.7,43.0,30.42,ENE,60,1.0,8.0,45,0.00,,,0.00,weatherlink.com 1.10,2013-05-01 17:17:00,
2013-05-01 13:30:00,64.9,43.0,30.42,ESE,114,2.0,2.0,45,0.00,,,0.00,Wunderground v.1.15,2013-05-01 17:30:00,
2013-05-01 13:40:00,64.6,42.8,30.42,South,182,3.0,5.0,45,0.00,,,0.00,Wunderground v.1.15,2013-05-01 17:40:00,
2013-05-01 13:47:00,64.8,41.0,30.41,ENE,66,2.0,7.0,42,0.00,,,0.00,weatherlink.com 1.10,2013-05-01 17:47:00,
2013-05-01 14:00:00,65.2,41.5,30.41,East,98,2.0,2.0,42,0.00,,,0.00,Wunderground v.1.15,2013-05-01 18:00:00,
2013-05-01 14:10:00,65.8,40.1,30.41,SE,140,2.0,2.0,39,0.00,,,0.00,Wunderground v.1.15,2013-05-01 18:10:00,
2013-05-01 14:17:00,65.3,38.0,30.41,South,174,5.0,11.0,36,0.00,,,0.00,weatherlink.com 1.10,2013-05-01 18:17:00,
2013-05-01 14:30:00,65.4,37.7,30.41,East,86,3.0,3.0,36,0.00,,,0.00,Wunderground v.1.15,2013-05-01 18:30:00,
2013-05-01 14:40:00,65.0,37.4,30.40,ENE,63,3.0,3.0,36,0.00,,,0.00,Wunderground v.1.15,2013-05-01 18:40:00,
2013-05-01 14:47:00,65.4,38.0,30.40,ENE,71,5.0,8.0,37,0.00,,,0.00,weatherlink.com 1.10,2013-05-01 18:47:00,
2013-05-01 15:00:00,65.4,39.1,30.40,East,99,3.0,5.0,38,0.00,,,0.00,Wunderground v.1.15,2013-05-01 19:00:00,
2013-05-01 15:10:00,65.8,38.8,30.40,ENE,69,2.0,2.0,37,0.00,,,0.00,Wunderground v.1.15,2013-05-01 19:10:00,
2013-05-01 15:18:00,66.3,38.0,30.40,SE,126,1.0,8.0,36,0.00,,,0.00,weatherlink.com 1.10,2013-05-01 19:18:00,
2013-05-01 15:30:00,66.5,36.5,30.40,SE,125,2.0,2.0,33,0.00,,,0.00,Wunderground v.1.15,2013-05-01 19:30:00,
2013-05-01 15:40:00,66.4,37.2,30.40,South,189,2.0,2.0,34,0.00,,,0.00,Wunderground v.1.15,2013-05-01 19:40:00,
2013-05-01 15:48:00,67.0,38.0,30.40,ESE,113,2.0,5.0,34,0.00,,,0.00,weatherlink.com 1.10,2013-05-01 19:48:00,
2013-05-01 16:00:00,67.2,37.1,30.40,ENE,65,2.0,4.0,33,0.00,,,0.00,Wunderground v.1.15,2013-05-01 20:00:00,
2013-05-01 16:10:00,66.2,37.0,30.39,East,95,3.0,3.0,34,0.00,,,0.00,Wunderground v.1.15,2013-05-01 20:10:00,
2013-05-01 16:19:00,66.5,39.0,30.40,ESE,106,0.0,6.0,36,0.00,,,0.00,weatherlink.com 1.10,2013-05-01 20:19:00,
2013-05-01 16:30:00,67.1,41.3,30.39,East,90,1.0,3.0,39,0.00,,,0.00,Wunderground v.1.15,2013-05-01 20:30:00,
2013-05-01 16:40:00,66.8,41.7,30.40,ESE,104,1.0,1.0,40,0.00,,,0.00,Wunderground v.1.15,2013-05-01 20:40:00,
2013-05-01 16:49:00,67.0,42.0,30.40,SE,136,1.0,7.0,41,0.00,,,0.00,weatherlink.com 1.10,2013-05-01 20:49:00,
2013-05-01 17:00:00,66.7,42.2,30.40,South,186,2.0,2.0,41,0.00,,,0.00,Wunderground v.1.15,2013-05-01 21:00:00,
2013-05-01 17:10:00,66.1,43.5,30.40,South,182,3.0,3.0,44,0.00,,,0.00,Wunderground v.1.15,2013-05-01 21:10:00,
2013-05-01 17:18:00,66.0,43.0,30.40,South,172,3.0,5.0,44,0.00,,,0.00,weatherlink.com 1.10,2013-05-01 21:18:00,
2013-05-01 17:30:00,65.8,42.7,30.40,SE,127,2.0,2.0,43,0.00,,,0.00,Wunderground v.1.15,2013-05-01 21:30:00,
2013-05-01 17:40:00,65.7,43.8,30.40,ESE,121,1.0,1.0,45,0.00,,,0.00,Wunderground v.1.15,2013-05-01 21:40:00,
2013-05-01 17:50:00,66.0,45.0,30.40,SE,146,0.0,4.0,47,0.00,,,0.00,weatherlink.com 1.10,2013-05-01 21:50:00,
2013-05-01 18:00:00,66.7,44.7,30.40,South,171,0.0,0.0,45,0.00,,,0.00,Wunderground v.1.15,2013-05-01 22:00:00,
2013-05-01 18:10:00,65.9,44.5,30.40,South,171,2.0,2.0,46,0.00,,,0.00,Wunderground v.1.15,2013-05-01 22:10:00,
2013-05-01 18:20:00,65.4,44.0,30.41,SE,145,0.0,5.0,47,0.00,,,0.00,weatherlink.com 1.10,2013-05-01 22:20:00,
2013-05-01 18:30:00,64.8,44.1,30.41,South,175,1.0,1.0,47,0.00,,,0.00,Wunderground v.1.15,2013-05-01 22:30:00,
2013-05-01 18:40:00,64.5,44.9,30.41,SSW,194,0.0,0.0,49,0.00,,,0.00,Wunderground v.1.15,2013-05-01 22:40:00,
2013-05-01 18:50:00,64.2,45.2,30.42,South,178,0.0,4.0,50,0.00,,,0.00,Wunderground v.1.15,2013-05-01 22:50:00,
2013-05-01 19:00:00,63.3,46.4,30.42,WSW,238,1.0,1.0,54,0.00,,,0.00,Wunderground v.1.15,2013-05-01 23:00:00,
2013-05-01 19:10:00,62.5,46.1,30.42,NW,306,0.0,0.0,55,0.00,,,0.00,Wunderground v.1.15,2013-05-01 23:10:00,
2013-05-01 19:20:00,61.8,45.9,30.42,South,185,1.0,5.0,56,0.00,,,0.00,Wunderground v.1.15,2013-05-01 23:20:00,
2013-05-01 19:30:00,61.1,46.2,30.42,SW,216,1.0,1.0,58,0.00,,,0.00,Wunderground v.1.15,2013-05-01 23:30:00,
2013-05-01 19:40:00,60.6,46.2,30.42,SW,216,0.0,0.0,59,0.00,,,0.00,Wunderground v.1.15,2013-05-01 23:40:00,
2013-05-01 19:50:00,60.0,45.6,30.42,SSW,213,0.0,2.0,59,0.00,,,0.00,Wunderground v.1.15,2013-05-01 23:50:00,
2013-05-01 20:00:00,59.3,45.8,30.43,SSW,212,0.0,0.0,61,0.00,,,0.00,Wunderground v.1.15,2013-05-02 00:00:00,
2013-05-01 20:10:00,58.7,45.7,30.43,SSW,199,1.0,1.0,62,0.00,,,0.00,Wunderground v.1.15,2013-05-02 00:10:00,
2013-05-01 20:19:00,58.2,45.0,30.43,SSW,199,0.0,1.0,63,0.00,,,0.00,weatherlink.com 1.10,2013-05-02 00:19:00,
2013-05-01 20:30:00,57.7,45.6,30.44,SSW,199,0.0,0.0,64,0.00,,,0.00,Wunderground v.1.15,2013-05-02 00:30:00,
2013-05-01 20:35:00,57.5,45.0,30.44,SSW,199,0.0,1.0,64,0.00,,,0.00,weatherlink.com 1.10,2013-05-02 00:35:00,
2013-05-01 20:50:00,56.9,45.3,30.44,SSW,202,0.0,0.0,65,0.00,,,0.00,Wunderground v.1.15,2013-05-02 00:50:00,
2013-05-01 21:00:00,56.5,45.3,30.44,SSW,202,0.0,0.0,66,0.00,,,0.00,Wunderground v.1.15,2013-05-02 01:00:00,
2013-05-01 21:10:00,56.0,45.2,30.44,SSW,202,0.0,0.0,67,0.00,,,0.00,Wunderground v.1.15,2013-05-02 01:10:00,
2013-05-01 21:20:00,55.5,45.1,30.45,SSW,202,0.0,0.0,68,0.00,,,0.00,Wunderground v.1.15,2013-05-02 01:20:00,
2013-05-01 21:30:00,55.1,45.1,30.45,SSW,202,0.0,0.0,69,0.00,,,0.00,Wunderground v.1.15,2013-05-02 01:30:00,
2013-05-01 21:36:00,54.8,45.0,30.45,SSW,202,0.0,0.0,70,0.00,,,0.00,weatherlink.com 1.10,2013-05-02 01:36:00,
2013-05-01 21:50:00,54.2,45.0,30.46,SSW,202,0.0,0.0,71,0.00,,,0.00,Wunderground v.1.15,2013-05-02 01:50:00,
2013-05-01 22:00:00,53.8,45.0,30.46,SSW,202,0.0,0.0,72,0.00,,,0.00,Wunderground v.1.15,2013-05-02 02:00:00,
2013-05-01 22:06:00,53.5,45.0,30.46,SSW,202,0.0,0.0,73,0.00,,,0.00,weatherlink.com 1.10,2013-05-02 02:06:00,
2013-05-01 22:20:00,52.9,44.8,30.45,SSW,202,0.0,0.0,74,0.00,,,0.00,Wunderground v.1.15,2013-05-02 02:20:00,
2013-05-01 22:30:00,52.5,44.8,30.46,SSW,202,0.0,0.0,75,0.00,,,0.00,Wunderground v.1.15,2013-05-02 02:30:00,
2013-05-01 22:37:00,52.3,45.0,30.46,SSW,202,0.0,0.0,76,0.00,,,0.00,weatherlink.com 1.10,2013-05-02 02:37:00,
2013-05-01 22:50:00,51.8,44.8,30.46,SSW,202,0.0,0.0,77,0.00,,,0.00,Wunderground v.1.15,2013-05-02 02:50:00,
2013-05-01 23:00:00,51.4,44.8,30.46,SSW,202,0.0,0.0,78,0.00,,,0.00,Wunderground v.1.15,2013-05-02 03:00:00,
2013-05-01 23:07:00,51.3,45.0,30.46,SSW,202,0.0,0.0,78,0.00,,,0.00,weatherlink.com 1.10,2013-05-02 03:07:00,
2013-05-01 23:20:00,50.8,44.5,30.46,SSW,202,0.0,0.0,79,0.00,,,0.00,Wunderground v.1.15,2013-05-02 03:20:00,
2013-05-01 23:30:00,50.5,44.6,30.46,SSW,202,0.0,0.0,80,0.00,,,0.00,Wunderground v.1.15,2013-05-02 03:30:00,
2013-05-01 23:37:00,50.2,45.0,30.46,SSW,202,0.0,0.0,81,0.00,,,0.00,weatherlink.com 1.10,2013-05-02 03:37:00,
2013-05-01 23:50:00,49.6,44.3,30.45,SSW,202,0.0,0.0,82,0.00,,,0.00,Wunderground v.1.15,2013-05-02 03:50:00,